Regional Weather Roundup
Issued by NWS

Home | Current Version | Previous Version | Text Only | Print | Product List | Glossary On
Versions: 1 2 3 4 5 6 7 8 9 10 11 12 13 14 15 16 17 18 19 20 21 22 23 24 25 26 27 28 29 30 31 32 33 34 35 36 37 38 39 40 41 42 43 44 45 46 47 48 49 50
000
ASUS42 KFFC 261603
RWRGA
WEATHER ROUNDUP FOR GEORGIA
NATIONAL WEATHER SERVICE PEACHTREE CITY GA
1100 AM EST FRI DEC 26 2014

NOTE: "FAIR" INDICATES FEW OR NO CLOUDS BELOW 12,000 FEET WITH NO
SIGNIFICANT WEATHER AND/OR OBSTRUCTIONS TO VISIBILITY.

* = USE WITH CAUTION. THE STATIONS MARKED WITH AN ASTERISK MAY NOT
REPORT WEATHER SUCH AS PRECIPITATION, FOG, OR THUNDER AND ARE NOT
QUALITY CONTROLLED BY NWS.

THE REMARK "TC" DENOTES TEMPERATURE READING IN DEGREES CELSIUS.

GAZ001>058-261700-
NORTH GEORGIA

CITY           SKY/WX    TMP DP  RH WIND       PRES   REMARKS
ATLANTA        MOSUNNY   51  36  56 CALM      30.35R
ATHENS         SUNNY     49  38  65 E3        30.36R
CHAMBLEE       SUNNY     49  37  63 CALM      30.36R
PEACHTREE CITY SUNNY     48  39  71 SE3       30.38R
ROME           MOSUNNY   42  37  82 CALM      30.38R
WEST ATLANTA   SUNNY     46  37  71 CALM      30.36S
GAINESVILLE    SUNNY     48  34  58 SE6       30.36R
CARTERSVILLE   SUNNY     41  35  79 CALM      30.38S


CITY           SKY/WX    TMP DP  RH WIND       PRES   REMARKS
DALTON*        SUNNY     37  37 100 CALM      30.38S
LAWRENCEVILLE* SUNNY     48  34  57 CALM      30.35R
MARIETTA       MOSUNNY   47  38  70 CALM      30.36R
KENNESAW*      MOSUNNY   45  36  70 CALM      30.37S
$$

GAZ059>098-102>109-261700-
CENTRAL GEORGIA

CITY           SKY/WX    TMP DP  RH WIND       PRES   REMARKS
AUGUSTA-BUSH   SUNNY     49  41  74 CALM      30.37F
AUGUSTA-DANIEL SUNNY     52  37  56 E6        30.37S
COLUMBUS       SUNNY     50  37  61 E5        30.36S
MACON          SUNNY     48  43  82 CALM      30.36S
ROBINS AFB     SUNNY     47  47 100 VRB1      30.37S


CITY           SKY/WX    TMP DP  RH WIND       PRES   REMARKS
LAGRANGE*      SUNNY     51  42  72 CALM      30.36F
SYLVANIA*      MOSUNNY   54  44  68 N3        30.37S
MILLEDGEVILLE* SUNNY     46  45  93 CALM      30.37S
$$

GAZ099>101-110>166-261700-
SOUTH GEORGIA

CITY           SKY/WX    TMP DP  RH WIND       PRES   REMARKS
SAVANNAH       MOSUNNY   59  41  51 NE6       30.35F
VALDOSTA       MOSUNNY   55  41  59 SE5       30.32S
ALMA           SUNNY     56  41  57 VRB3      30.34R
ST SIMONS      SUNNY     60  49  66 NE9       30.32S
FT STEWART     SUNNY     56  42  60 NE5       30.33S
ALBANY         SUNNY     55  41  59 E8        30.35S
HUNTER AFB     SUNNY     59  44  57 VRB6      30.32F
MOODY AFB      SUNNY     57  42  56 NE8       30.32S
BRUNSWICK      SUNNY     59  48  67 N6        30.33S


CITY           SKY/WX    TMP DP  RH WIND       PRES   REMARKS
BAINBRIDGE*    SUNNY     59  46  63 E5        30.33R
MOULTRIE*      SUNNY     54  43  66 E7        30.33S
VIDALIA*       MOSUNNY   55  43  62 NE6       30.35S
WAYCROSS*      SUNNY     59  47  65 NE5       30.33S
DOUGLAS*       SUNNY     55  41  58 E5        30.35S
$$


USA.gov is the U.S. government's official web portal to all federal, state and local government web resources and services.